[[{"header":{"parameterUnit":"m.s-1","parameterCategory":1,"la1":30.2991,"la2":30.254,"lo1":-89.0895,"lo2":-89.0444,"dx":0.0017,"dy":0.0017,"nx":28,"ny":28,"refTime":"2022-11-07T09:00:00:Z","depth":0,"parameterNumber":2,"parameterNumberName":"U-component_of_WINDS"},"data":[0,0,0,0,0,0,0,0,0,0,0,0,0,0,0,0,0,0,0,0,0,0,0,0,0,0,0,0,0,0,0,0,0,0,0,0,0,0,0,0,0,0,0,0,0,0,0,0,0,0,0,0,0,0,0,0,0,0,-0.8051,-0.8051,0,-0.8071,-0.8071,-0.8071,-0.8033,-0.8031,-0.803,-0.8029,-0.8051,-0.8053,-0.8054,0,0,0,0,0,0,0,0,0,0,0,0,0,-0.798,-0.7981,-0.8051,-0.8051,-0.8051,-0.8071,-0.8071,-0.8072,-0.8033,-0.8031,-0.803,-0.8028,-0.805,-0.8052,-0.8055,0,0,0,0,0,0,0,0,0,0,0,0,0,-0.8006,-0.7982,-0.8051,-0.8034,-0.8033,-0.8071,-0.8071,-0.8072,-0.8033,-0.8031,-0.8029,-0.8027,-0.805,-0.8052,-0.8055,-0.811,0,0,-0.8063,-0.8064,0,0,0,0,0,0,0,0,-0.8005,-0.8009,-0.8037,-0.8036,-0.8034,-0.8047,-0.8054,-0.8085,-0.8034,-0.8033,-0.8029,-0.8026,-0.8051,-0.8054,-0.8062,-0.8111,-0.8112,-0.8063,-0.8065,-0.8066,-0.8067,0,0,0,0,0,0,0,-0.8003,-0.8008,-0.8059,-0.8037,-0.8036,-0.8026,-0.8028,-0.806,-0.8053,-0.8033,-0.803,-0.8033,-0.805,-0.8059,-0.8062,-0.8112,-0.8063,-0.8066,-0.8067,-0.8068,-0.8208,-0.821,0,0,0,0,0,0,-0.8003,-0.8007,-0.8058,-0.8059,-0.8014,-0.8029,-0.8031,-0.8045,-0.8052,-0.8052,-0.8035,-0.8031,-0.8056,-0.8059,-0.8063,-0.8128,-0.8066,-0.8069,-0.807,-0.8206,-0.8209,-0.8211,0,0,0,0,0,0,-0.8002,-0.8008,-0.8057,-0.8032,-0.8038,-0.8032,-0.8049,-0.8046,-0.8055,-0.8054,-0.8052,-0.8045,-0.8054,-0.8059,-0.8099,-0.8129,-0.807,-0.8072,-0.8204,-0.8207,-0.821,-0.826,0,0,0,0,0,0,-0.8,-0.8008,-0.8029,-0.8033,-0.8039,-0.8093,-0.805,-0.8048,-0.806,-0.8056,-0.8063,-0.8063,-0.8053,-0.8095,-0.8101,-0.8131,-0.8074,-0.8201,-0.8205,-0.8209,-0.8255,-0.8264,-0.8272,0,0,0,0,0,-0.7998,-0.8042,-0.803,-0.8036,-0.8065,-0.8095,-0.8098,-0.8086,-0.8063,-0.8084,-0.8082,-0.8062,-0.8124,-0.8099,-0.8106,-0.8137,-0.8199,-0.8204,-0.8208,-0.8252,-0.8263,-0.8272,0,0,0,0,0,0,-0.8043,-0.8043,-0.8029,-0.8077,-0.8086,-0.8088,-0.8114,-0.8098,-0.8115,-0.811,-0.8094,-0.8096,-0.8139,-0.8142,-0.8114,-0.8191,-0.8157,-0.8164,-0.8188,-0.8198,-0.8206,-0.8205,-0.8077,0,0,0,0,0,-0.8058,-0.8081,-0.808,-0.8122,-0.8128,-0.812,-0.8133,-0.8122,-0.8132,-0.8135,-0.8137,-0.8147,-0.8169,-0.8183,-0.8203,-0.8255,-0.8256,-0.828,-0.8288,-0.8295,-0.8301,-0.8329,-0.8339,-0.8226,-0.8226,-0.8226,0,0,-0.809,-0.8093,-0.8109,-0.8131,-0.8137,-0.8163,-0.8124,-0.8152,-0.8171,-0.814,-0.8178,-0.8179,-0.8189,-0.8235,-0.8256,-0.8239,-0.8332,-0.8301,-0.8306,-0.8309,-0.8335,-0.8345,-0.8355,-0.823,-0.8229,-0.8228,0,0,-0.8162,-0.8166,-0.8202,-0.8208,-0.8218,-0.8212,-0.8221,-0.8225,-0.8225,-0.8262,-0.8239,-0.8261,-0.8299,-0.8307,-0.8316,-0.839,-0.8372,-0.8396,-0.844,-0.8467,-0.8476,-0.8484,-0.8511,-0.8521,-0.8402,-0.8402,-0.8402,0,-0.8201,-0.8238,-0.8222,-0.8252,-0.8263,-0.8235,-0.8271,-0.8278,-0.8294,-0.8302,-0.8282,-0.8329,-0.8333,-0.8381,-0.8399,-0.8407,-0.8417,-0.8396,-0.8476,-0.8484,-0.8491,-0.8516,-0.8526,-0.8405,-0.8405,-0.8405,-0.8404,0,-0.8286,-0.8311,-0.8339,-0.8354,-0.8368,-0.8401,-0.839,-0.8406,-0.8394,-0.8391,-0.8429,-0.8434,-0.8454,-0.8464,-0.8453,-0.851,-0.85,-0.8478,-0.8444,-0.8505,-0.8529,-0.8538,-0.841,-0.8408,-0.8408,-0.8407,0,0,-0.8388,-0.8393,-0.8404,-0.841,-0.8418,-0.8438,-0.8469,-0.8488,-0.8502,-0.8513,-0.854,-0.8571,-0.8551,-0.8562,-0.8551,-0.8575,-0.8634,-0.8551,-0.8551,-0.8567,-0.8698,-0.8715,-0.8727,-0.8621,-0.8623,-0.8625,-0.8697,0,-0.846,-0.8514,-0.85,-0.8554,-0.8578,-0.8551,-0.8578,-0.8586,-0.8584,-0.8604,-0.86,-0.8624,-0.8595,-0.8601,-0.8624,-0.8622,-0.866,-0.8616,-0.8647,-0.8648,-0.8646,-0.8739,-0.8757,-0.8826,-0.8706,-0.8708,-0.8709,0,-0.8551,-0.8566,-0.8622,-0.8625,-0.8634,-0.8659,-0.8676,-0.8695,-0.8703,-0.8699,-0.871,-0.8695,-0.8726,-0.869,-0.8734,-0.8704,-0.8715,-0.8716,-0.8719,-0.8722,-0.8683,-0.8746,-0.8847,-0.8858,-0.8724,-0.8722,-0.8721,0,-0.8622,-0.8655,-0.8692,-0.8699,-0.8703,-0.8721,-0.8724,-0.873,-0.8743,-0.8757,-0.8765,-0.8782,-0.8792,-0.8806,-0.8796,-0.8771,-0.8841,-0.8805,-0.884,-0.884,-0.8857,-0.8856,-0.8963,-0.8862,-0.8862,-0.8862,-0.8862,0,-0.8704,-0.874,-0.8724,-0.8748,-0.8786,-0.877,-0.8809,-0.8809,-0.8815,-0.8838,-0.8815,-0.8837,-0.8822,-0.8843,-0.8834,-0.8872,-0.8876,-0.8874,-0.8872,-0.8877,-0.8878,-0.8886,-0.8881,-0.8865,-0.8864,-0.8863,-0.8863,0,-0.879,-0.8781,-0.882,-0.8821,-0.8822,-0.8851,-0.8852,-0.8873,-0.8868,-0.8898,-0.8904,-0.8897,-0.892,-0.891,-0.8935,-0.893,-0.8978,-0.8969,-0.8975,-0.8973,-0.9009,-0.9006,-0.9125,-0.914,-0.9029,-0.903,-0.9031,0,-0.8844,-0.8871,-0.8874,-0.8888,-0.8892,-0.8914,-0.8926,-0.8911,-0.8925,-0.8935,-0.8956,-0.8977,-0.8994,-0.9032,-0.9029,-0.9048,-0.904,-0.908,-0.9043,-0.9047,-0.9042,-0.9041,-0.9044,-0.9088,-0.9089,-0.909,-0.9091,0,-0.8941,-0.8935,-0.8953,-0.897,-0.8985,-0.8997,-0.9008,-0.902,-0.9005,-0.9022,-0.9045,-0.9058,-0.9082,-0.9104,-0.912,-0.9123,-0.9106,-0.9103,-0.9112,-0.9118,-0.9122,-0.9121,-0.8997,-0.9101,-0.91,-0.9099,-0.9099,-0.9098,-0.9014,-0.9036,-0.9042,-0.9063,-0.9069,-0.9079,-0.9099,-0.9097,-0.9116,-0.9135,-0.9124,-0.9152,-0.9158,-0.9178,-0.9184,-0.9205,-0.9189,-0.9203,-0.9206,-0.921,-0.9215,-0.9117,-0.9208,-0.9208,-0.9207,-0.9207,-0.9207,0,-0.911,-0.9112,-0.9132,-0.9147,-0.9163,-0.9143,-0.9154,-0.9169,-0.9193,-0.9201,-0.9217,-0.9244,-0.9264,-0.9262,-0.9281,-0.9299,-0.9291,-0.9304,-0.9304,-0.9305,-0.9228,-0.9218,-0.931,-0.931,-0.931,-0.931,-0.931,-0.931,-0.9163,-0.92,-0.9194,-0.9234,-0.9236,-0.9262,-0.927,-0.9279,-0.9285,-0.9316,-0.9333,-0.9331,-0.9335,-0.9353,-0.9371,-0.937,-0.9379,-0.9396,-0.9392,-0.932,-0.931,-0.93,-0.9291,-0.9397,-0.9397,-0.9467,-0.9468,-0.9468]},{"header":{"parameterUnit":"m.s-1","parameterCategory":1,"la1":30.2991,"la2":30.254,"lo1":-89.0895,"lo2":-89.0444,"dx":0.0017,"dy":0.0017,"nx":28,"ny":28,"refTime":"2022-11-07T09:00:00:Z","depth":0,"parameterNumber":3,"parameterNumberName":"V-component_of_WINDS"},"data":[0,0,0,0,0,0,0,0,0,0,0,0,0,0,0,0,0,0,0,0,0,0,0,0,0,0,0,0,0,0,0,0,0,0,0,0,0,0,0,0,0,0,0,0,0,0,0,0,0,0,0,0,0,0,0,0,0,0,-2.3101,-2.3101,0,-2.314,-2.314,-2.3141,-2.3123,-2.3122,-2.3121,-2.312,-2.3157,-2.3159,-2.3161,0,0,0,0,0,0,0,0,0,0,0,0,0,-2.3008,-2.301,-2.3101,-2.3101,-2.3102,-2.314,-2.314,-2.3141,-2.3123,-2.3122,-2.3121,-2.312,-2.3157,-2.3159,-2.3161,0,0,0,0,0,0,0,0,0,0,0,0,0,-2.3048,-2.301,-2.3101,-2.3098,-2.3098,-2.314,-2.314,-2.3141,-2.3124,-2.3122,-2.3121,-2.3119,-2.3156,-2.3159,-2.3161,-2.3207,0,0,-2.317,-2.3171,0,0,0,0,0,0,0,0,-2.3045,-2.3051,-2.3098,-2.3098,-2.3098,-2.3125,-2.3121,-2.3163,-2.3124,-2.3114,-2.312,-2.3119,-2.3148,-2.3151,-2.3161,-2.3209,-2.3211,-2.317,-2.3172,-2.3173,-2.3174,0,0,0,0,0,0,0,-2.3043,-2.3049,-2.3116,-2.3098,-2.3099,-2.3093,-2.3097,-2.3129,-2.3138,-2.3115,-2.3113,-2.3118,-2.3147,-2.3159,-2.3162,-2.3211,-2.317,-2.3173,-2.3174,-2.3175,-2.3298,-2.33,0,0,0,0,0,0,-2.304,-2.3047,-2.3115,-2.3117,-2.3068,-2.3096,-2.3101,-2.3118,-2.3138,-2.3139,-2.312,-2.3117,-2.3155,-2.3159,-2.3163,-2.3218,-2.3173,-2.3176,-2.3177,-2.3297,-2.3299,-2.33,0,0,0,0,0,0,-2.3038,-2.3047,-2.3113,-2.3082,-2.309,-2.3099,-2.3119,-2.312,-2.3131,-2.3142,-2.3143,-2.313,-2.3154,-2.3159,-2.3197,-2.3219,-2.3177,-2.318,-2.3295,-2.3297,-2.3299,-2.3329,0,0,0,0,0,0,-2.3036,-2.3046,-2.3064,-2.3083,-2.3092,-2.3147,-2.312,-2.3121,-2.3136,-2.3134,-2.3151,-2.3153,-2.3153,-2.3193,-2.32,-2.3222,-2.3182,-2.3293,-2.3296,-2.3299,-2.3326,-2.3332,-2.3337,0,0,0,0,0,-2.3033,-2.307,-2.3065,-2.3074,-2.3115,-2.3149,-2.3154,-2.3154,-2.3138,-2.3156,-2.3163,-2.3152,-2.3216,-2.3197,-2.3204,-2.3228,-2.3291,-2.3295,-2.3298,-2.3323,-2.333,-2.3337,0,0,0,0,0,0,-2.3053,-2.3073,-2.3067,-2.3112,-2.3129,-2.3146,-2.3168,-2.3162,-2.3182,-2.3179,-2.3177,-2.3182,-2.322,-2.3228,-2.3206,-2.3273,-2.3251,-2.3256,-2.3267,-2.3274,-2.328,-2.3277,-2.3184,0,0,0,0,0,-2.3064,-2.309,-2.3105,-2.3143,-2.3152,-2.3159,-2.3173,-2.3172,-2.3189,-2.3196,-2.3205,-2.3221,-2.3244,-2.326,-2.3282,-2.3327,-2.333,-2.3347,-2.3352,-2.3357,-2.3361,-2.3385,-2.3393,-2.3312,-2.3312,-2.3312,0,0,-2.3084,-2.3098,-2.3115,-2.3148,-2.3161,-2.3187,-2.3165,-2.3194,-2.3213,-2.32,-2.3236,-2.3243,-2.3261,-2.3302,-2.332,-2.3309,-2.3384,-2.3361,-2.3365,-2.3367,-2.3389,-2.3397,-2.3404,-2.3314,-2.3314,-2.3313,0,0,-2.3135,-2.3149,-2.3182,-2.3196,-2.3216,-2.322,-2.3228,-2.3246,-2.325,-2.3287,-2.3277,-2.3299,-2.334,-2.3353,-2.3364,-2.342,-2.3411,-2.3428,-2.3457,-2.348,-2.3486,-2.3492,-2.3511,-2.3518,-2.3432,-2.3432,-2.3432,0,-2.3158,-2.3199,-2.32,-2.323,-2.3244,-2.3234,-2.3267,-2.328,-2.3306,-2.3316,-2.3303,-2.3354,-2.3365,-2.3408,-2.3422,-2.3432,-2.344,-2.3425,-2.3485,-2.3491,-2.3496,-2.3515,-2.3522,-2.3434,-2.3434,-2.3434,-2.3433,0,-2.3226,-2.3254,-2.3278,-2.3305,-2.3322,-2.3353,-2.3358,-2.3375,-2.3372,-2.3377,-2.3414,-2.3427,-2.3452,-2.3462,-2.3459,-2.3505,-2.3498,-2.3485,-2.3463,-2.3506,-2.3523,-2.353,-2.3437,-2.3436,-2.3435,-2.3435,0,0,-2.3291,-2.3318,-2.3327,-2.3338,-2.336,-2.3381,-2.3411,-2.3437,-2.3451,-2.3469,-2.3494,-2.3528,-2.3517,-2.353,-2.3529,-2.3549,-2.3592,-2.3534,-2.3535,-2.3544,-2.3643,-2.3652,-2.366,-2.3586,-2.3588,-2.3589,-2.3641,0,-2.3343,-2.3398,-2.34,-2.3449,-2.3475,-2.3466,-2.3492,-2.3508,-2.3513,-2.3535,-2.3541,-2.3565,-2.3549,-2.3557,-2.3576,-2.3583,-2.3612,-2.3579,-2.3608,-2.361,-2.3604,-2.3669,-2.3679,-2.3728,-2.3648,-2.3649,-2.365,0,-2.3412,-2.3433,-2.3486,-2.3503,-2.3514,-2.3538,-2.3561,-2.3582,-2.3599,-2.3602,-2.3617,-2.3612,-2.3642,-2.3619,-2.366,-2.3637,-2.3649,-2.3654,-2.3656,-2.3658,-2.3632,-2.3673,-2.3744,-2.3751,-2.3661,-2.366,-2.3659,0,-2.3453,-2.3495,-2.3532,-2.3542,-2.3564,-2.3581,-2.3591,-2.3606,-2.3621,-2.3641,-2.365,-2.3672,-2.3685,-2.3701,-2.3703,-2.3686,-2.3743,-2.372,-2.3745,-2.3745,-2.3758,-2.3757,-2.3831,-2.3766,-2.3766,-2.3766,-2.3766,0,-2.3512,-2.3544,-2.3551,-2.3574,-2.3609,-2.3611,-2.3645,-2.3653,-2.3667,-2.369,-2.3683,-2.3705,-2.3706,-2.3727,-2.3728,-2.3761,-2.3767,-2.3769,-2.3769,-2.3769,-2.3769,-2.3777,-2.3773,-2.3768,-2.3768,-2.3767,-2.3767,0,-2.3564,-2.357,-2.361,-2.3627,-2.3632,-2.3658,-2.3672,-2.3693,-2.3698,-2.3728,-2.3734,-2.3742,-2.3767,-2.377,-2.3799,-2.38,-2.384,-2.3836,-2.3834,-2.3834,-2.3858,-2.3856,-2.394,-2.395,-2.3879,-2.388,-2.3881,0,-2.36,-2.3625,-2.3646,-2.3662,-2.3672,-2.3697,-2.3713,-2.3714,-2.3731,-2.3752,-2.377,-2.3795,-2.3814,-2.3855,-2.3862,-2.3884,-2.3881,-2.3909,-2.3884,-2.3884,-2.388,-2.3879,-2.3881,-2.3913,-2.3914,-2.3914,-2.3915,0,-2.3664,-2.3666,-2.369,-2.3714,-2.3733,-2.3752,-2.3769,-2.3782,-2.3786,-2.3804,-2.383,-2.3846,-2.3876,-2.39,-2.3922,-2.393,-2.3923,-2.3923,-2.393,-2.393,-2.3928,-2.3929,-2.3847,-2.3921,-2.392,-2.392,-2.3919,-2.3919,-2.371,-2.3731,-2.3749,-2.3775,-2.3789,-2.3806,-2.3826,-2.3834,-2.3857,-2.3882,-2.3881,-2.391,-2.3926,-2.3954,-2.3964,-2.3986,-2.3977,-2.3987,-2.3989,-2.3991,-2.3994,-2.3925,-2.399,-2.399,-2.399,-2.3989,-2.3989,0,-2.3773,-2.3784,-2.3808,-2.3833,-2.3854,-2.3846,-2.3865,-2.3882,-2.3908,-2.3924,-2.3944,-2.3974,-2.3997,-2.4007,-2.4029,-2.4045,-2.4042,-2.4051,-2.4049,-2.4051,-2.4001,-2.3993,-2.4053,-2.4053,-2.4053,-2.4053,-2.4052,-2.4052,-2.3808,-2.3844,-2.3848,-2.389,-2.3901,-2.393,-2.3942,-2.3957,-2.3969,-2.4003,-2.4023,-2.403,-2.4043,-2.4066,-2.4087,-2.4089,-2.4097,-2.4108,-2.4108,-2.4061,-2.4055,-2.4049,-2.4041,-2.411,-2.411,-2.4156,-2.4157,-2.4157]}]]